Home   Weather   Eureka   Past weeks

Flag for Canada Past Weather in Eureka, Nunavut, Canada — Yesterday and Last 2 Weeks

Now
16 °F

Light snow. Overcast.


Feels Like: 16 °F
Forecast: 14 / 22 °F
Wind: No wind

Location: Eureka

Current Time: Oct 1, 2016 at 10:38:47 AM

Latest Report: Oct 1, 2016 at 10:00 AM


Visibility: 2 mi

Pressure: 30.06 "Hg

Humidity: 86%

Dew Point: 12 °F

Location of EurekaLocation

Past Weather in Eureka — Graph

°F

Eureka Temperature Yesterday

Maximum temperature yesterday: 19 °F (at 12:00 AM)
Minimum temperature yesterday: 14 °F (at 1:00 PM)
Average temperature yesterday: 17 °F

High & Low Weather Summary for the Past Weeks

 TemperatureHumidityPressure
High37 °F (Sep 24, 11:00 AM)100% (Sep 26, 3:00 AM)30.18 "Hg (Sep 26, 3:00 AM)
Low10 °F (Sep 17, 10:00 PM)63% (Sep 18, 7:00 PM)29.47 "Hg (Sep 16, 4:00 PM)
Average25 °F84%29.78 "Hg
* Reported Sep 16 9:00 AM — Oct 1 9:00 AM, Eureka, Weather by CustomWeather, © 2016

Note: Actual official high and low records may vary slightly from our data, if they occured in-between our weather recording intervals... More about our weather records

Advertising

Eureka Weather History for the Previous 24 Hours

Scroll right to see more
 ConditionsComfort  
Time TempWeatherWind HumidityBarometerVisibility
9:00 AM
Sat, Oct 1
14 °FLight snow. Overcast.2 mph92%30.07 "Hg4 mi
8:00 AM14 °FLight snow. Overcast.2 mph85%30.07 "Hg12 mi
7:00 AM14 °FLight snow. Passing clouds.3 mph85%30.08 "Hg12 mi
6:00 AM14 °FLight snow. Passing clouds.3 mph85%30.10 "Hg12 mi
5:00 AM14 °FLight snow. Overcast.6 mph85%30.11 "Hg15 mi
4:00 AM14 °FLight snow. Overcast.5 mph85%30.11 "Hg9 mi
3:00 AM14 °FLight snow. Overcast.7 mph85%30.11 "Hg12 mi
2:00 AM12 °FLight snow. Passing clouds.6 mph92%30.12 "Hg15 mi
1:00 AM16 °FLight snow. Passing clouds.7 mph86%30.12 "Hg15 mi
12:00 AM16 °FPassing clouds.8 mph86%30.11 "Hg15 mi
11:00 PM
Fri, Sep 30
16 °FPassing clouds.8 mph86%30.12 "Hg15 mi
10:00 PM14 °FPassing clouds.9 mph85%30.14 "Hg15 mi
9:00 PM16 °FPassing clouds.10 mph79%30.14 "Hg15 mi
8:00 PM16 °FPartly cloudy.13 mph79%30.16 "Hg15 mi
7:00 PM16 °FPartly cloudy.12 mph79%30.16 "Hg15 mi
6:00 PM16 °FPassing clouds.3 mph79%30.17 "Hg15 mi
5:00 PM16 °FBroken clouds.2 mph73%30.18 "Hg15 mi
4:45 PM16 °FSnow flurries. Partly sunny.2 mph79%30.18 "Hg15 mi
4:00 PM16 °FScattered clouds.3 mph73%30.17 "Hg15 mi
3:00 PM16 °FPassing clouds.7 mph79%30.17 "Hg15 mi
2:00 PM16 °FScattered clouds.20 mph79%30.16 "Hg15 mi
1:50 PM16 °FScattered clouds.16 mph79%30.17 "Hg15 mi
1:00 PM14 °FPassing clouds.12 mph79%30.16 "Hg15 mi
12:03 PM16 °FPassing clouds.16 mph73%30.16 "Hg15 mi
11:00 AM16 °FPassing clouds.6 mph79%30.15 "Hg15 mi
10:49 AM16 °FPassing clouds.13 mph79%30.16 "Hg15 mi
10:00 AM18 °FPassing clouds.7 mph73%30.15 "Hg15 mi
Weather by CustomWeather, © 2016

See weather overviewHow to use our weather pages